TIANMU-1 13 (58647 NORAD) Tracking and Keplerian Element Data

This shows tracking and keplerian element data for the satellite.

Feedback or suggestion? Click here.




ElementValue
Catalog58647
NameTIANMU-1 13
Epoch Orbit289
Epoch Day13.19431549
Epoch Year2024
RAAN42.3043
Inclination97.4209
Eccentricity0.0010017
Argument of Perigee192.5892
Mean Anonmoly167.509
Mean Motion15.1304978
Decay Rate5.598E-05
L11 58647U 23205C 24013.19431549 .00005598 00000+0 31989-3 0 9997
L22 58647 97.4209 42.3043 0010017 192.5892 167.5090 15.13049780 2899



Live tracking and technical data element details for TIANMU-1 13 (NORAD 58647). TIANMU-1 13 can be tracked NOW for your location showing map with azimuth and elevation plus other details from your city location.







IsCatalogInMostPopularTable: catalog: 58647, numindb: 22
Update: records affected: 1



GetName: 58647 TIANMU-1 13

Hit Count: updated at: Wed, 17 Apr 2024 03:33:32 GMT